Greenwood, SC

12:55 PM EST on December 07, 2016 (GMT -0500)
Greenwood County

Weather History for KGRD - January, 2013

Change the Weather History Date:

Sunday, January 27, 2013

  Actual Average (KAND) Record (KAND)
Temperature  
Mean Temperature 40 °F -  
Max Temperature 50 °F 53 °F 75 °F (1954)
Min Temperature 30 °F 31 °F 11 °F (1985)
Degree Days  
Heating Degree Days 25    
Moisture  
Dew Point 28 °F    
Average Humidity 67    
Maximum Humidity 92    
Minimum Humidity 41    
Precipitation  
Precipitation 0.00 in - - ()
Sea Level Pressure  
Sea Level Pressure 30.48 in    
Wind  
Wind Speed 4 mph (ENE)    
Max Wind Speed 8 mph    
Max Gust Speed -    
Visibility 9 miles    
Events      
Averages and records for this station are not official NWS values.
T = Trace of Precipitation, MM = Missing Value Source: NWS Daily Summary

Daily Weather History Graph

Daily Weather History Graph

Search for Another Location

Airport or City:

Trip Planner

Search our weather history database for the weather conditions in past years. The results will help you decide how hot, cold, wet, or windy it might be!

Date:

Astronomy

Jan. 27, 2013 Rise Set
Actual Time 7:29 AM EST 5:54 PM EST
Civil Twilight 7:02 AM EST 6:20 PM EST
Nautical Twilight 6:32 AM EST 6:50 PM EST
Astronomical Twilight 6:02 AM EST 7:20 PM EST
Moon 6:42 PM EST (1/27) 7:25 AM EST (1/27)
Length of Visible Light 11h 18m
Length of Day
10h 24m
Full, 100% of the Moon is Illuminated
Jan 27
Full
Feb 3
Last Quarter
Feb 10
New
Feb 17
First Quarter
Feb 25
Full

Hourly Weather History & Observations

Time (EST) Temp. Windchill Dew Point Humidity Pressure Visibility Wind Dir Wind Speed Gust Speed Precip Events Conditions
12:56 AM 35.1 °F 31.0 °F 30.0 °F 82% 30.35 in 10.0 mi NE 4.6 mph - N/A   Clear
1:56 AM 34.0 °F 31.0 °F 30.0 °F 85% 30.37 in 10.0 mi NE 3.5 mph - N/A   Clear
2:56 AM 32.0 °F 28.7 °F 28.9 °F 88% 30.39 in 10.0 mi NNE 3.5 mph - N/A   Clear
3:56 AM 32.0 °F 27.5 °F 28.9 °F 88% 30.40 in 10.0 mi NE 4.6 mph - N/A   Clear
4:56 AM 30.9 °F 25.2 °F 28.0 °F 89% 30.42 in 10.0 mi NE 5.8 mph - N/A   Clear
5:56 AM 30.0 °F 25.2 °F 27.0 °F 88% 30.44 in 9.0 mi NE 4.6 mph - N/A   Clear
6:56 AM 30.0 °F 25.2 °F 27.0 °F 88% 30.48 in 8.0 mi NE 4.6 mph - N/A   Clear
7:56 AM 30.0 °F 25.2 °F 28.0 °F 92% 30.52 in 5.0 mi NNE 4.6 mph - N/A   Clear
8:56 AM 33.1 °F 26.1 °F 28.9 °F 85% 30.54 in 4.0 mi NE 8.1 mph - N/A   Clear
9:56 AM 36.0 °F 31.1 °F 28.9 °F 76% 30.54 in 7.0 mi ENE 5.8 mph - N/A   Clear
10:56 AM 39.9 °F 35.8 °F 27.0 °F 60% 30.56 in 10.0 mi East 5.8 mph - N/A   Clear
11:56 AM 44.1 °F 39.5 °F 27.0 °F 51% 30.56 in 10.0 mi NE 8.1 mph - N/A   Clear
12:56 PM 45.0 °F 41.2 °F 27.0 °F 49% 30.51 in 10.0 mi Variable 6.9 mph - N/A   Clear
1:56 PM 48.0 °F - 27.0 °F 44% 30.48 in 10.0 mi ESE 8.1 mph - N/A   Clear
2:56 PM 48.0 °F - 27.0 °F 44% 30.48 in 10.0 mi ENE 4.6 mph - N/A   Partly Cloudy
3:56 PM 50.0 °F - 27.0 °F 41% 30.47 in 10.0 mi East 5.8 mph - N/A   Mostly Cloudy
4:56 PM 48.9 °F - 27.0 °F 43% 30.48 in 10.0 mi East 4.6 mph - N/A   Clear
5:56 PM 44.1 °F - 28.9 °F 55% 30.50 in 10.0 mi Calm Calm - N/A   Clear
6:56 PM 43.0 °F - 28.9 °F 58% 30.50 in 10.0 mi Calm Calm - N/A   Clear
7:56 PM 44.1 °F - 30.0 °F 58% 30.50 in 10.0 mi Calm Calm - N/A   Overcast
8:56 PM 43.0 °F - 30.0 °F 60% 30.50 in 10.0 mi Calm Calm - N/A   Overcast
9:56 PM 44.1 °F 42.5 °F 28.9 °F 55% 30.51 in 10.0 mi NE 3.5 mph - N/A   Overcast
10:56 PM 43.0 °F - 28.9 °F 58% 30.50 in 10.0 mi Calm Calm - N/A   Overcast
11:56 PM 42.1 °F 39.2 °F 28.9 °F 60% 30.47 in 10.0 mi East 4.6 mph - N/A   Overcast